TA5KT-13 Weather Reports


time (UTC)temp
F
wind
direction
speed
knots
gust
knots
rain 1hr
in
rain 24hr
in
rain mn
in
humidity
%
barometer
mb
20260508121524 66 0.0 0.0 0.00 0.00 0.00 79 1016.4
20260508120524 66 0.0 0.0 0.00 0.00 0.00 79 1016.5
20260508115525 66 0.0 0.0 0.00 0.00 0.00 79 1016.6
20260508114524 66 0.0 0.0 0.00 0.00 0.00 76 1016.8
20260508113524 66 0.0 0.0 0.00 0.00 0.00 77 1016.8
20260508112524 66 0.0 0.0 0.00 0.00 0.00 81 1016.8
20260508111524 66 0.0 0.0 0.00 0.00 0.00 85 1016.9
20260508110524 66 0.0 0.0 0.00 0.00 0.00 86 1017.1
20260508105524 66 0.0 0.0 0.00 0.00 0.00 88 1017.2
20260508104523 66 0.0 0.0 0.00 0.00 0.00 90 1017.2
20260508103524 66 0.0 0.0 0.00 0.00 0.00 91 1017.4
20260508102523 66 0.0 0.0 0.00 0.00 0.00 91 1017.5
20260508101524 66 0.0 0.0 0.00 0.00 0.00 92 1017.5
20260508100523 66 0.0 0.0 0.00 0.00 0.00 94 1017.6
20260508095524 66 0.0 0.0 0.00 0.00 0.00 97 1017.7
20260508094524 66 0.0 0.0 0.00 0.00 0.00 99 1017.9
20260508093523 66 0.0 0.0 0.00 0.00 0.00 10 1018.0
20260508092524 66 0.0 0.0 0.00 0.00 0.00 10 1018.1
20260508091524 66 0.0 0.0 0.00 0.00 0.00 10 1018.2
20260508090524 66 0.0 0.0 0.00 0.00 0.00 10 1018.4
20260508085523 66 0.0 0.0 0.00 0.00 0.00 99 1018.5
20260508084523 66 0.0 0.0 0.00 0.00 0.00 10 1018.6
20260508083523 66 0.0 0.0 0.00 0.00 0.00 10 1018.7
20260508082523 66 0.0 0.0 0.00 0.00 0.00 10 1018.9
20260508081523 66 0.0 0.0 0.00 0.00 0.00 10 1018.9
20260508080524 66 0.0 0.0 0.00 0.00 0.00 10 1019.0
20260508075524 66 0.0 0.0 0.00 0.00 0.00 10 1019.1
20260508074523 66 0.0 0.0 0.00 0.00 0.00 10 1019.1
20260508073523 66 0.0 0.0 0.00 0.00 0.00 10 1019.2
20260508072523 66 0.0 0.0 0.00 0.00 0.00 10 1018.9
20260508071523 66 0.0 0.0 0.00 0.00 0.00 10 1019.1
20260508070523 66 0.0 0.0 0.00 0.00 0.00 10 1019.1
20260508065523 66 0.0 0.0 0.00 0.00 0.00 10 1019.1
20260508064523 66 0.0 0.0 0.00 0.00 0.00 10 1019.1
20260508063523 66 0.0 0.0 0.00 0.00 0.00 10 1019.1
20260508062523 66 0.0 0.0 0.00 0.00 0.00 10 1019.1
20260508061523 66 0.0 0.0 0.00 0.00 0.00 10 1019.2
20260508060523 66 0.0 0.0 0.00 0.00 0.00 10 1018.7
20260508055523 66 0.0 0.0 0.00 0.00 0.00 10 1019.1
20260508054523 66 0.0 0.0 0.00 0.00 0.00 10 1019.2
20260508053523 66 0.0 0.0 0.00 0.00 0.00 10 1019.2
20260508052523 66 0.0 0.0 0.00 0.00 0.00 10 1019.1
20260508051523 66 0.0 0.0 0.00 0.00 0.00 10 1019.0
20260508050522 66 0.0 0.0 0.00 0.00 0.00 10 1018.9
20260508045522 67 0.0 0.0 0.00 0.00 0.00 10 1018.9
20260508044523 67 0.0 0.0 0.00 0.00 0.00 10 1018.8
20260508043522 67 0.0 0.0 0.00 0.00 0.00 10 1018.9
20260508042522 67 0.0 0.0 0.00 0.00 0.00 10 1018.7
20260508041522 67 0.0 0.0 0.00 0.00 0.00 10 1018.7
20260508040522 66 0.0 0.0 0.00 0.00 0.00 10 1018.6
20260508035522 67 0.0 0.0 0.00 0.00 0.00 10 1018.5
20260508034522 67 0.0 0.0 0.00 0.00 0.00 10 1018.5
20260508033522 67 0.0 0.0 0.00 0.00 0.00 10 1018.1
20260508032523 67 0.0 0.0 0.00 0.00 0.00 10 1018.0
20260508031522 67 0.0 0.0 0.00 0.00 0.00 10 1017.9
20260508030522 67 0.0 0.0 0.00 0.00 0.00 10 1018.0
20260508025522 67 0.0 0.0 0.00 0.00 0.00 10 1018.0
20260508024522 67 0.0 0.0 0.00 0.00 0.00 10 1017.9
20260508023522 67 0.0 0.0 0.00 0.00 0.00 10 1017.9
20260508022522 67 0.0 0.0 0.00 0.00 0.00 10 1017.9
20260508021522 67 0.0 0.0 0.00 0.00 0.00 10 1017.9
20260508020522 67 0.0 0.0 0.00 0.00 0.00 10 1017.6
20260508015522 67 0.0 0.0 0.00 0.00 0.00 10 1017.7
20260508014522 67 0.0 0.0 0.00 0.00 0.00 10 1017.8
20260508013522 67 0.0 0.0 0.00 0.00 0.00 10 1017.7
20260508012521 67 0.0 0.0 0.00 0.00 0.00 10 1017.7
20260508011522 67 0.0 0.0 0.00 0.00 0.00 10 1017.7
20260508010521 67 0.0 0.0 0.00 0.00 0.00 10 1017.8
20260508005522 67 0.0 0.0 0.00 0.00 0.00 10 1017.9
20260508004521 67 0.0 0.0 0.00 0.00 0.00 10 1018.0
20260508003521 67 0.0 0.0 0.00 0.00 0.00 10 1017.9
20260508002521 67 0.0 0.0 0.00 0.00 0.00 10 1017.7
20260508001522 67 0.0 0.0 0.00 0.00 0.00 10 1017.7
20260508000522 67 0.0 0.0 0.00 0.00 0.00 10 1017.7
20260507235521 67 0.0 0.0 0.00 0.00 0.00 10 1017.6
20260507234522 67 0.0 0.0 0.00 0.00 0.00 10 1017.6
20260507233522 67 0.0 0.0 0.00 0.00 0.00 10 1017.5
20260507232522 67 0.0 0.0 0.00 0.00 0.00 10 1017.4
20260507231521 67 0.0 0.0 0.00 0.00 0.00 10 1017.3
20260507230521 67 0.0 0.0 0.00 0.00 0.00 10 1017.4
20260507225521 67 0.0 0.0 0.00 0.00 0.00 10 1017.5
20260507224522 67 0.0 0.0 0.00 0.00 0.00 10 1017.6
20260507223522 67 0.0 0.0 0.00 0.00 0.00 10 1017.7
20260507222521 68 0.0 0.0 0.00 0.00 0.00 10 1017.7
20260507221521 68 0.0 0.0 0.00 0.00 0.00 10 1017.9
20260507220522 68 0.0 0.0 0.00 0.00 0.00 10 1017.8
20260507215521 68 0.0 0.0 0.00 0.00 0.00 10 1017.7
20260507214521 68 0.0 0.0 0.00 0.00 0.00 10 1017.8
20260507213521 68 0.0 0.0 0.00 0.00 0.00 10 1017.9
20260507212521 68 0.0 0.0 0.00 0.00 0.00 10 1017.9
20260507211521 68 0.0 0.0 0.00 0.00 0.00 10 1017.7
20260507210520 68 0.0 0.0 0.00 0.00 0.00 10 1017.8
20260507205521 68 0.0 0.0 0.00 0.00 0.00 10 1017.7
20260507204520 68 0.0 0.0 0.00 0.00 0.00 10 1017.6
20260507203521 68 0.0 0.0 0.00 0.00 0.00 10 1017.5
20260507202521 68 0.0 0.0 0.00 0.00 0.00 10 1017.4
20260507201520 68 0.0 0.0 0.00 0.00 0.00 10 1017.5
20260507200520 68 0.0 0.0 0.00 0.00 0.00 10 1017.3
20260507195520 67 0.0 0.0 0.00 0.00 0.00 10 1017.2
20260507194521 67 0.0 0.0 0.00 0.00 0.00 10 1017.3
20260507193520 67 0.0 0.0 0.00 0.00 0.00 10 1017.3
20260507192521 67 0.0 0.0 0.00 0.00 0.00 10 1017.2
20260507191521 67 0.0 0.0 0.00 0.00 0.00 10 1017.3
20260507190521 67 0.0 0.0 0.00 0.00 0.00 10 1017.4
20260507185520 67 0.0 0.0 0.00 0.00 0.00 10 1017.5
20260507184521 67 0.0 0.0 0.00 0.00 0.00 10 1017.5
20260507183520 67 0.0 0.0 0.00 0.00 0.00 10 1017.5
20260507182521 67 0.0 0.0 0.00 0.00 0.00 10 1017.4
20260507181520 67 0.0 0.0 0.00 0.00 0.00 10 1017.4
20260507180520 67 0.0 0.0 0.00 0.00 0.00 10 1017.4
20260507175520 67 0.0 0.0 0.00 0.00 0.00 10 1017.2
20260507174520 67 0.0 0.0 0.00 0.00 0.00 10 1017.1
20260507173520 67 0.0 0.0 0.00 0.00 0.00 10 1017.1
20260507171520 66 0.0 0.0 0.00 0.00 0.00 10 1017.0
20260507170520 66 0.0 0.0 0.00 0.00 0.00 10 1017.0
20260507165520 66 0.0 0.0 0.00 0.00 0.00 10 1017.0
20260507164520 66 0.0 0.0 0.00 0.00 0.00 10 1016.8
20260507163520 66 0.0 0.0 0.00 0.00 0.00 10 1016.8
20260507162520 66 0.0 0.0 0.00 0.00 0.00 10 1016.8
20260507161520 66 0.0 0.0 0.00 0.00 0.00 10 1016.8
20260507160521 66 0.0 0.0 0.00 0.00 0.00 10 1016.7
20260507155520 66 0.0 0.0 0.00 0.00 0.00 10 1016.6
20260507154520 66 0.0 0.0 0.00 0.00 0.00 99 1016.5
20260507153520 66 0.0 0.0 0.00 0.00 0.00 98 1016.5
20260507152522 66 0.0 0.0 0.00 0.00 0.00 97 1016.5
20260507151520 66 0.0 0.0 0.00 0.00 0.00 94 1016.5
20260507150520 66 0.0 0.0 0.00 0.00 0.00 92 1016.4
20260507145519 65 0.0 0.0 0.00 0.00 0.00 90 1016.3
20260507144520 65 0.0 0.0 0.00 0.00 0.00 87 1016.2
20260507143520 65 0.0 0.0 0.00 0.00 0.00 83 1016.3
20260507142519 65 0.0 0.0 0.00 0.00 0.00 75 1016.3
20260507141520 65 0.0 0.0 0.00 0.00 0.00 72 1016.3
20260507140519 65 0.0 0.0 0.00 0.00 0.00 70 1016.3
20260507135520 65 0.0 0.0 0.00 0.00 0.00 69 1016.2
20260507134519 65 0.0 0.0 0.00 0.00 0.00 78 1016.3
20260507133519 65 0.0 0.0 0.00 0.00 0.00 77 1016.4
20260507132519 65 0.0 0.0 0.00 0.00 0.00 76 1016.3
20260507131520 65 0.0 0.0 0.00 0.00 0.00 78 1016.3
20260507130520 65 0.0 0.0 0.00 0.00 0.00 77 1016.4
20260507125519 65 0.0 0.0 0.00 0.00 0.00 80 1016.5
20260507124519 65 0.0 0.0 0.00 0.00 0.00 79 1016.5
20260507123519 65 0.0 0.0 0.00 0.00 0.00 74 1016.7
20260507122519 65 0.0 0.0 0.00 0.00 0.00 73 1016.7